Weather History for Kimball, NE

Change the Weather History Date:

Wednesday, May 9, 2012

  Actual Average (KSNY) Record (KSNY)
Temperature  
Mean Temperature 56 °F 56 °F  
Max Temperature 77 °F 70 °F 90 °F (1962)
Min Temperature 36 °F 41 °F 16 °F (2002)
Degree Days  
Heating Degree Days 8 10  
Month to date heating degree days 99  
Since 1 July heating degree days 6011  
Cooling Degree Days 0 0  
Month to date cooling degree days 0  
Year to date cooling degree days 1  
Growing Degree Days 6 (Base 50)    
Moisture  
Dew Point 30 °F    
Average Humidity 42    
Maximum Humidity 76    
Minimum Humidity 13    
Precipitation  
Precipitation 0.00 in 0.09 in 0.96 in (1979)
Month to date precipitation 0.90  
Year to date precipitation 4.57  
Sea Level Pressure  
Sea Level Pressure 30.02 in    
Wind  
Wind Speed 8 mph (SSW)    
Max Wind Speed 16 mph    
Max Gust Speed 20 mph    
Visibility 10 miles    
Events      
T = Trace of Precipitation, MM = Missing Value Source: NWS Daily Summary

Daily Weather History Graph

Daily Weather History Graph

Search for Another Location

Airport:

Trip Planner

Search our weather history database for the weather conditions in past years. The results will help you decide how hot, cold, wet, or windy it might be!

Date:

Astronomy

May. 09, 2012 Rise Set
Actual Time 6:42 AM CDT 9:00 PM CDT
Civil Twilight 6:11 AM CDT 9:31 PM CDT
Nautical Twilight 5:33 AM CDT 10:09 PM CDT
Astronomical Twilight 4:51 AM CDT 10:52 PM CDT
Moon 12:12 AM CDT (5/9) 9:59 AM CDT (5/9)
Length of Visible Light 15h 20m
Length of Day
14h 18m
Waning Gibbous, 82% of the Moon is Illuminated
May 9
Waning Gibbous
May 12
Last Quarter
May 20
New
May 28
First Quarter
Jun 4
Full

Hourly Weather History & Observations

Time (CDT) Temp. Windchill Dew Point Humidity Pressure Visibility Wind Dir Wind Speed Gust Speed Precip Events Conditions
12:15 AM 42.3 °F 38.6 °F 30.2 °F 62% 30.16 in 10.0 mi SE 5.8 mph - N/A   Clear
12:35 AM 41.4 °F 36.2 °F 30.0 °F 64% 30.16 in 10.0 mi SSE 8.1 mph - N/A   Clear
12:55 AM 41.9 °F 36.3 °F 29.5 °F 61% 30.16 in 10.0 mi SSE 9.2 mph - N/A   Clear
1:15 AM 41.0 °F 35.8 °F 29.7 °F 64% 30.16 in 10.0 mi South 8.1 mph - N/A   Clear
1:35 AM 40.3 °F 34.4 °F 29.8 °F 66% 30.16 in 10.0 mi South 9.2 mph - N/A   Clear
1:55 AM 41.4 °F 35.7 °F 28.9 °F 61% 30.15 in 10.0 mi SSE 9.2 mph - N/A   Clear
2:15 AM 39.2 °F 34.2 °F 29.1 °F 67% 30.15 in 10.0 mi SSE 6.9 mph - N/A   Clear
2:35 AM 39.4 °F 34.5 °F 28.6 °F 65% 30.14 in 10.0 mi SSE 6.9 mph - N/A   Clear
2:55 AM 38.8 °F 34.6 °F 28.6 °F 67% 30.14 in 10.0 mi South 5.8 mph - N/A   Clear
3:15 AM 39.2 °F 34.2 °F 28.9 °F 67% 30.13 in 10.0 mi South 6.9 mph - N/A   Clear
3:35 AM 38.8 °F 33.8 °F 29.1 °F 68% 30.12 in 10.0 mi South 6.9 mph - N/A   Clear
3:55 AM 38.1 °F 32.9 °F 29.3 °F 71% 30.11 in 10.0 mi SSE 6.9 mph - N/A   Clear
4:15 AM 39.4 °F 35.2 °F 28.4 °F 65% 30.12 in 10.0 mi South 5.8 mph - N/A   Clear
4:35 AM 38.7 °F 35.2 °F 28.4 °F 67% 30.11 in 10.0 mi South 4.6 mph - N/A   Clear
4:55 AM 37.6 °F 33.1 °F 28.9 °F 71% 30.10 in 10.0 mi South 5.8 mph - N/A   Clear
5:15 AM 39.0 °F 33.4 °F 28.8 °F 67% 30.10 in 10.0 mi South 8.1 mph - N/A   Clear
5:35 AM 38.8 °F 33.8 °F 28.8 °F 67% 30.09 in 10.0 mi SSW 6.9 mph - N/A   Clear
5:55 AM 37.6 °F 32.3 °F 29.1 °F 72% 30.09 in 10.0 mi SSW 6.9 mph - N/A   Clear
6:15 AM 36.7 °F 30.5 °F 29.3 °F 75% 30.08 in 10.0 mi SSW 8.1 mph - N/A   Clear
6:35 AM 38.1 °F 31.7 °F 29.1 °F 70% 30.08 in 10.0 mi SSW 9.2 mph - N/A   Clear
7:15 AM 37.0 °F 31.0 °F 30.0 °F 76% 30.07 in 10.0 mi WSW 8.1 mph - N/A   Clear
7:35 AM 38.7 °F 33.6 °F 30.7 °F 73% 30.07 in 10.0 mi WSW 6.9 mph - N/A   Clear
7:55 AM 41.2 °F 36.6 °F 31.3 °F 68% 30.08 in 10.0 mi WSW 6.9 mph - N/A   Clear
8:15 AM 44.4 °F 40.5 °F 32.0 °F 62% 30.07 in 10.0 mi WSW 6.9 mph - N/A   Clear
8:35 AM 48.4 °F - 33.3 °F 56% 30.08 in 10.0 mi WSW 6.9 mph - N/A   Clear
8:55 AM 51.4 °F - 33.8 °F 51% 30.07 in 10.0 mi WSW 6.9 mph - N/A   Clear
9:15 AM 54.0 °F - 33.8 °F 46% 30.07 in 10.0 mi WSW 8.1 mph - N/A   Clear
9:35 AM 57.0 °F - 33.6 °F 41% 30.07 in 10.0 mi WSW 9.2 mph - N/A   Clear
9:55 AM 59.5 °F - 34.5 °F 39% 30.07 in 10.0 mi WSW 11.5 mph - N/A   Clear
10:15 AM 62.6 °F - 33.1 °F 33% 30.07 in 10.0 mi WSW 16.1 mph - N/A   Clear
10:35 AM 64.2 °F - 32.5 °F 31% 30.06 in 10.0 mi SW 13.8 mph - N/A   Clear
10:55 AM 65.5 °F - 32.7 °F 30% 30.05 in 10.0 mi WSW 12.7 mph 16.1 mph N/A   Clear
11:15 AM 67.1 °F - 30.2 °F 25% 30.05 in 10.0 mi SW 8.1 mph - N/A   Clear
11:35 AM 67.8 °F - 29.1 °F 24% 30.04 in 10.0 mi WSW 8.1 mph - N/A   Clear
11:55 AM 68.4 °F - 27.0 °F 21% 30.04 in 10.0 mi SW 8.1 mph - N/A   Clear
12:15 PM 69.4 °F - 28.0 °F 21% 30.04 in 10.0 mi WSW 8.1 mph - N/A   Clear
12:35 PM 70.0 °F - 25.3 °F 19% 30.03 in 10.0 mi West 8.1 mph - N/A   Clear
12:55 PM 70.2 °F - 25.7 °F 19% 30.02 in 10.0 mi WNW 9.2 mph - N/A   Clear
1:15 PM 71.4 °F - 28.4 °F 20% 30.01 in 10.0 mi WNW 4.6 mph - N/A   Clear
1:35 PM 71.4 °F - 27.9 °F 20% 30.00 in 10.0 mi NNW 5.8 mph - N/A   Clear
1:55 PM 72.5 °F - 24.4 °F 17% 29.99 in 10.0 mi NW 9.2 mph - N/A   Clear
2:15 PM 73.0 °F - 25.0 °F 17% 29.99 in 10.0 mi Calm Calm - N/A   Clear
2:35 PM 74.3 °F - 24.8 °F 16% 29.98 in 10.0 mi NNW 9.2 mph - N/A   Clear
2:55 PM 73.8 °F - 23.2 °F 15% 29.97 in 10.0 mi Calm Calm - N/A   Clear
3:15 PM 74.7 °F - 23.7 °F 15% 29.97 in 10.0 mi North 3.5 mph - N/A   Clear
3:35 PM 75.6 °F - 25.2 °F 15% 29.96 in 10.0 mi NW 9.2 mph - N/A   Clear
3:55 PM 76.3 °F - 25.2 °F 15% 29.95 in 10.0 mi NNW 6.9 mph - N/A   Clear
4:15 PM 76.6 °F - 26.4 °F 16% 29.94 in 10.0 mi North 11.5 mph 16.1 mph N/A   Clear
4:35 PM 75.7 °F - 24.3 °F 15% 29.94 in 10.0 mi Calm Calm - N/A   Clear
4:55 PM 77.2 °F - 24.4 °F 14% 29.92 in 10.0 mi SW 11.5 mph - N/A   Clear
5:15 PM 77.7 °F - 23.4 °F 13% 29.92 in 10.0 mi WSW 11.5 mph 19.6 mph N/A   Clear
5:35 PM 77.9 °F - 23.7 °F 13% 29.91 in 10.0 mi West 10.4 mph - N/A   Clear
5:55 PM 77.9 °F - 23.9 °F 14% 29.91 in 10.0 mi West 9.2 mph - N/A   Clear
6:15 PM 77.4 °F - 22.5 °F 13% 29.91 in 10.0 mi West 9.2 mph - N/A   Clear
6:35 PM 76.3 °F - 29.1 °F 18% 29.90 in 10.0 mi South 10.4 mph - N/A   Clear
6:55 PM 75.4 °F - 30.6 °F 19% 29.90 in 10.0 mi SSE 11.5 mph - N/A   Clear
7:15 PM 73.8 °F - 29.7 °F 20% 29.89 in 10.0 mi South 9.2 mph - N/A   Clear
7:35 PM 72.1 °F - 32.5 °F 23% 29.89 in 10.0 mi SSE 8.1 mph - N/A   Clear
7:55 PM 70.5 °F - 35.1 °F 27% 29.89 in 10.0 mi SSE 8.1 mph - N/A   Clear
8:15 PM 67.8 °F - 37.2 °F 32% 29.89 in 10.0 mi South 6.9 mph - N/A   Clear
8:35 PM 64.0 °F - 39.6 °F 41% 29.89 in 10.0 mi SSE 8.1 mph - N/A   Clear
8:55 PM 61.2 °F - 38.7 °F 43% 29.90 in 10.0 mi SSE 6.9 mph - N/A   Clear
9:15 PM 59.5 °F - 38.5 °F 46% 29.90 in 10.0 mi SSE 8.1 mph - N/A   Clear
9:35 PM 59.2 °F - 38.3 °F 46% 29.91 in 10.0 mi SE 5.8 mph - N/A   Clear
9:55 PM 56.3 °F - 39.4 °F 53% 29.91 in 10.0 mi SSE 8.1 mph - N/A   Clear
10:15 PM 55.8 °F - 38.5 °F 52% 29.91 in 10.0 mi South 8.1 mph - N/A   Clear
10:35 PM 55.4 °F - 37.6 °F 51% 29.91 in 10.0 mi South 8.1 mph - N/A   Clear
10:55 PM 53.8 °F - 37.4 °F 54% 29.91 in 10.0 mi South 8.1 mph - N/A   Clear
11:15 PM 53.8 °F - 37.4 °F 54% 29.91 in 10.0 mi South 8.1 mph - N/A   Clear
11:35 PM 53.4 °F - 36.5 °F 53% 29.90 in 10.0 mi South 9.2 mph - N/A   Clear
11:55 PM 52.9 °F - 36.5 °F 54% 29.90 in 10.0 mi South 8.1 mph - N/A   Clear